Location: Napier
(39.4830°S, 176.9170°E)
Time: 14:24:41
(UTC+12:00)

ATLAS 3B R/B - Pass Details

Date: 15 August 2020
Orbit: 1016 x 1179 km, 63.8° (Epoch: 22 September)

Event Time Altitude Azimuth Distance (km) Brightness Sun altitude
Rises 19:25:55 0° 220° (SW) 3,997 6.3 -22.0°
Reaches altitude 10° 19:28:49 10° 226° (SW) 3,007 5.7 -22.6°
Maximum altitude 19:35:22 40° 293° (WNW) 1,548 4.0 -23.8°
Drops below altitude 10° 19:41:37 10° 360° (N) 2,870 4.9 -25.1°
Sets 19:44:20 0° 7° (N) 3,796 5.5 -25.6°
